Weather History for Ishigakijima, Japan

Change the Weather History Date:

Tuesday, January 29, 2013

  Actual Average Record
Temperature  
Mean Temperature 66 °F -  
Max Temperature 73 °F 69 °F 75 °F (2005)
Min Temperature 59 °F 61 °F 50 °F (2003)
Growing Degree Days 16 (Base 50)    
Moisture  
Dew Point 52 °F    
Average Humidity 54    
Maximum Humidity 82    
Minimum Humidity 44    
Precipitation  
Precipitation 0.00 in - - ()
Sea Level Pressure  
Sea Level Pressure 30.17 in    
Wind  
Wind Speed 9 mph ()    
Max Wind Speed 14 mph    
Max Gust Speed -    
Visibility 10.0 miles    
Events      
Averages and records for this station are not official NWS values.
T = Trace of Precipitation, MM = Missing Value Source: Averaged Metar Reports

Daily Weather History Graph

Daily Weather History Graph

Search for Another Location

Airport:

Trip Planner

Search our weather history database for the weather conditions in past years. The results will help you decide how hot, cold, wet, or windy it might be!

Date:

Astronomy

Jan. 29, 2013 Rise Set
Actual Time 7:26 AM JST 6:26 PM JST
Civil Twilight 7:02 AM JST 6:50 PM JST
Nautical Twilight 6:35 AM JST 7:18 PM JST
Astronomical Twilight 6:07 AM JST 7:45 PM JST
Moon 8:25 PM JST (1/29) 8:22 AM JST (1/29)
Length of Visible Light 11h 48m
Length of Day
11h 00m
Waning Gibbous, 96% of the Moon is Illuminated
Jan 29
Waning Gibbous
Feb 3
Last Quarter
Feb 10
New
Feb 18
First Quarter
Feb 26
Full

Hourly Weather History & Observations

Time (JST) Temp. Dew Point Humidity Pressure Visibility Wind Dir Wind Speed Gust Speed Precip Events Conditions
12:00 AM 63 °F 48 °F 48% 30.24 in - ENE 11.5 mph - -  
3:00 AM 64 °F 48 °F 45% 30.22 in 16 mi East 9.2 mph - -   Overcast
6:00 AM 64 °F 49 °F 49% 30.18 in 16 mi ESE 12.7 mph - -   Scattered Clouds
6:00 AM 64.4 °F 50.0 °F 59% 30.15 in 6.2 mi ESE 9.2 mph - N/A   Partly Cloudy
7:00 AM 64.4 °F 50.0 °F 59% 30.15 in 6.2 mi ESE 10.4 mph - N/A   Partly Cloudy
8:00 AM 66.2 °F 50.0 °F 56% 30.18 in 6.2 mi ESE 10.4 mph - N/A   Partly Cloudy
9:00 AM 68 °F 51 °F 45% 30.21 in 19 mi ESE 10.4 mph - -   Scattered Clouds
9:00 AM 68.0 °F 50.0 °F 52% 30.18 in 6.2 mi ESE 10.4 mph - N/A   Mostly Cloudy
10:00 AM 68.0 °F 50.0 °F 52% 30.18 in 6.2 mi ESE 10.4 mph - N/A   Partly Cloudy
11:00 AM 69.8 °F 53.6 °F 56% 30.18 in 6.2 mi SE 11.5 mph - N/A   Mostly Cloudy
12:00 PM 72 °F 54 °F 44% 30.20 in 19 mi SE 13.8 mph - -   Scattered Clouds
12:00 PM 71.6 °F 53.6 °F 53% 30.18 in 6.2 mi SE 11.5 mph - N/A   Scattered Clouds
1:00 PM 71.6 °F 53.6 °F 53% 30.15 in 6.2 mi SE 10.4 mph - N/A   Partly Cloudy
2:00 PM 71.6 °F 53.6 °F 53% 30.15 in 6.2 mi SSE 10.4 mph - N/A   Partly Cloudy
3:00 PM 71 °F 55 °F 47% 30.15 in 19 mi South 11.5 mph - -   Mostly Cloudy
3:00 PM 69.8 °F 55.4 °F 60% 30.12 in 6.2 mi South 10.4 mph - N/A   Mostly Cloudy
4:00 PM 71.6 °F 53.6 °F 53% 30.12 in 6.2 mi South 11.5 mph - N/A   Mostly Cloudy
5:00 PM 69.8 °F 53.6 °F 56% 30.15 in 6.2 mi South 9.2 mph - N/A   Mostly Cloudy
6:00 PM 70 °F 54 °F 47% 30.16 in 19 mi SSW 13.8 mph - -   Mostly Cloudy
6:00 PM 69.8 °F 53.6 °F 56% 30.15 in 6.2 mi SSW 11.5 mph - N/A   Mostly Cloudy
7:00 PM 68.0 °F 51.8 °F 56% 30.15 in 6.2 mi WSW 3.5 mph - N/A   Partly Cloudy
8:00 PM 60.8 °F 55.4 °F 82% 30.18 in 6.2 mi North 3.5 mph - N/A   Partly Cloudy
9:00 PM 66 °F 55 °F 60% 30.20 in 19 mi East 2.3 mph - -   Scattered Clouds